Evansville, IN

9:43 PM CST on November 11, 2019 (GMT -0600)
Evansville Regional

Weather History for KEVV - July, 2019

Change the Weather History Date:

Monday, July 22, 2019

  Actual Average Record
Temperature  
Mean Temperature 72 °F 78 °F  
Max Temperature 78 °F 88 °F 107 °F (1901)
Min Temperature 65 °F 67 °F 50 °F (1966)
Degree Days  
Heating Degree Days 0 0  
Month to date heating degree days 0 0  
Since 1 June heating degree days 4 6  
Since 1 July heating degree days 0 0  
Cooling Degree Days 7 13  
Month to date cooling degree days 340 286  
Year to date cooling degree days 792 719  
Since 1 June cooling degree days 604 584  
Growing Degree Days 24 (Base 50)    
Moisture  
Dew Point 69 °F    
Average Humidity 81    
Maximum Humidity 93    
Minimum Humidity 69    
Precipitation  
Precipitation 0.10 in 0.13 in 1.46 in (1997)
Month to date precipitation 2.28 2.87  
Year to date precipitation 39.56 26.89  
Snow  
Snow 0.00 in 0.00 in - ()
Month to date snowfall 0.0 0.0  
Since 1 June snowfall 0.0 0.0  
Since 1 July snowfall 0.0 0.0  
Snow Depth 0.00 in    
Sea Level Pressure  
Sea Level Pressure 29.94 in    
Wind  
Wind Speed 6 mph (North)    
Max Wind Speed 15 mph    
Max Gust Speed 22 mph    
Visibility 9 miles    
Events Rain    
T = Trace of Precipitation, MM = Missing Value Source: NWS Daily Summary

Daily Weather History Graph

Daily Weather History Graph

Search for Another Location

Airport or City:

Astronomy

Jul. 22, 2019 Rise Set
Actual Time 5:44 AM CDT 8:08 PM CDT
Civil Twilight 5:14 AM CDT 8:38 PM CDT
Nautical Twilight 4:37 AM CDT 9:15 PM CDT
Astronomical Twilight 3:56 AM CDT 9:55 PM CDT
Moon 11:33 PM CDT (7/22) 10:56 AM CDT (7/22)
Length of Visible Light 15h 23m
Length of Day
14h 23m
Waning Gibbous, 72% of the Moon is Illuminated
Jul 22
Waning Gibbous
Jul 24
Last Quarter
Jul 31
New
Aug 7
First Quarter
Aug 15
Full

Hourly Weather History & Observations

Time (CDT) Temp. Dew Point Humidity Pressure Visibility Wind Dir Wind Speed Gust Speed Precip Events Conditions
12:54 AM 73.0 °F 70.0 °F 90% 29.90 in 10.0 mi South 3.5 mph - 0.01 in   Mostly Cloudy
1:54 AM 73.0 °F 70.0 °F 90% 29.89 in 10.0 mi Calm Calm - N/A   Overcast
2:54 AM 73.0 °F 71.1 °F 93% 29.89 in 10.0 mi NNW 5.8 mph - N/A   Overcast
3:07 AM 73.0 °F 70.0 °F 90% 29.90 in 10.0 mi NNW 5.8 mph - N/A   Overcast
3:16 AM 73.0 °F 70.0 °F 90% 29.90 in 10.0 mi NNW 3.5 mph - N/A   Mostly Cloudy
3:54 AM 73.0 °F 70.0 °F 90% 29.88 in 10.0 mi Calm Calm - N/A   Mostly Cloudy
4:54 AM 73.0 °F 71.1 °F 93% 29.89 in 10.0 mi Calm Calm - N/A   Clear
5:54 AM 72.0 °F 70.0 °F 93% 29.91 in 7.0 mi Calm Calm - N/A   Mostly Cloudy
6:54 AM 73.9 °F 71.1 °F 91% 29.91 in 9.0 mi Calm Calm - N/A   Overcast
7:21 AM 73.9 °F 71.1 °F 91% 29.92 in 9.0 mi NNE 4.6 mph - N/A   Mostly Cloudy
7:50 AM 75.2 °F 71.6 °F 89% 29.94 in 1.8 mi Calm Calm - N/A   Mostly Cloudy
7:54 AM 75.0 °F 72.0 °F 90% 29.93 in 6.0 mi Calm Calm - N/A   Mostly Cloudy
8:49 AM 75.2 °F 71.6 °F 89% 29.94 in 10.0 mi North 5.8 mph - N/A   Overcast
8:54 AM 75.9 °F 72.0 °F 87% 29.93 in 10.0 mi North 6.9 mph - N/A   Overcast
9:01 AM 75.9 °F 72.0 °F 87% 29.94 in 10.0 mi North 5.8 mph - N/A   Overcast
9:09 AM 75.9 °F 72.0 °F 87% 29.94 in 10.0 mi North 6.9 mph - N/A   Overcast
9:27 AM 75.9 °F 72.0 °F 87% 29.94 in 10.0 mi North 5.8 mph - 0.00 in Rain Light Rain
9:37 AM 75.9 °F 72.0 °F 87% 29.94 in 10.0 mi North 8.1 mph - 0.00 in   Overcast
9:48 AM 75.2 °F 71.6 °F 89% 29.94 in 6.0 mi North 4.6 mph - 0.00 in Rain Light Rain
9:54 AM 75.0 °F 72.0 °F 90% 29.92 in 6.0 mi NNW 8.1 mph - 0.00 in Rain Light Rain
10:54 AM 77.0 °F 72.0 °F 84% 29.93 in 10.0 mi NE 11.5 mph - 0.08 in   Mostly Cloudy
11:16 AM 77.0 °F 72.0 °F 84% 29.95 in 10.0 mi NNE 8.1 mph - N/A   Mostly Cloudy
11:35 AM 77.0 °F 71.1 °F 82% 29.94 in 10.0 mi North 8.1 mph - N/A   Mostly Cloudy
11:54 AM 75.9 °F 70.0 °F 82% 29.94 in 10.0 mi North 12.7 mph - 0.00 in   Overcast
12:20 PM 75.9 °F 70.0 °F 82% 29.94 in 10.0 mi North 9.2 mph - 0.00 in Rain Light Rain
12:52 PM 75.2 °F 69.8 °F 83% 29.96 in 8.0 mi North 8.1 mph - 0.01 in Rain Light Rain
12:54 PM 75.0 °F 70.0 °F 84% 29.95 in 8.0 mi NNW 5.8 mph - 0.01 in Rain Light Rain
1:54 PM 75.0 °F 70.0 °F 84% 29.95 in 10.0 mi North 8.1 mph - 0.01 in   Overcast
2:54 PM 75.0 °F 68.0 °F 79% 29.96 in 10.0 mi North 8.1 mph - N/A   Scattered Clouds
3:54 PM 75.9 °F 68.0 °F 76% 29.96 in 10.0 mi NNE 10.4 mph 19.6 mph N/A   Mostly Cloudy
4:41 PM 73.9 °F 66.9 °F 79% 29.97 in 10.0 mi North 9.2 mph - 0.00 in   Overcast
4:54 PM 73.9 °F 66.9 °F 79% 29.96 in 10.0 mi North 10.4 mph - 0.00 in Rain Light Rain
5:23 PM 73.0 °F 68.0 °F 84% 29.98 in 10.0 mi North 11.5 mph - 0.00 in   Overcast
5:36 PM 73.0 °F 66.9 °F 81% 29.98 in 10.0 mi North 8.1 mph - 0.00 in   Overcast
5:54 PM 73.0 °F 66.9 °F 81% 29.97 in 10.0 mi North 9.2 mph - 0.00 in   Overcast
6:54 PM 75.0 °F 64.9 °F 71% 29.98 in 10.0 mi NNE 11.5 mph - N/A   Mostly Cloudy
7:54 PM 73.0 °F 64.9 °F 76% 29.99 in 10.0 mi NNE 4.6 mph - N/A   Clear
8:54 PM 71.1 °F 66.0 °F 84% 30.01 in 10.0 mi NNW 4.6 mph - N/A   Scattered Clouds
9:54 PM 70.0 °F 62.1 °F 76% 30.02 in 10.0 mi North 6.9 mph - N/A   Clear
10:54 PM 69.1 °F 60.1 °F 73% 30.03 in 10.0 mi North 8.1 mph - N/A   Clear
11:54 PM 66.9 °F 57.9 °F 73% 30.05 in 10.0 mi North 8.1 mph - N/A   Clear